Regional Weather Roundup
Issued by NWS

Home | Current Version | Previous Version | Graphics & Text | Print | Product List | Glossary On
Versions: 1 2 3 4 5 6 7 8 9 10 11 12 13 14 15 16 17 18 19 20 21 22 23 24 25 26 27 28 29 30 31 32 33 34 35 36 37 38 39 40 41 42 43 44 45 46 47 48 49 50
785
ASUS43 KMPX 251510
RWRMN
WEATHER ROUNDUP FOR MINNESOTA
NATIONAL WEATHER SERVICE TWIN CITIES/CHANHASSEN MN
1000 AM CDT MON JUL 25 2016


NOTE: "FAIR" INDICATES FEW OR NO CLOUDS BELOW 12,000 FEET WITH NO
SIGNIFICANT WEATHER AND/OR OBSTRUCTIONS TO VISIBILITY. N/A MEANS
CURRENT SKY AND/OR WEATHER CONDITIONS ARE NOT AVAILABLE.

MNZ060>063-068>070-251600-
   Twin Cities Metro

CITY           SKY/WX    TMP DP  RH WIND       PRES   REMARKS
TWIN CITIES    SUNNY     79  61  53 NW5       30.08R
ST PAUL        SUNNY     78  61  55 NW8       30.07S
CRYSTAL        SUNNY     78  60  53 MISG      30.06S
BLAINE         SUNNY     79  63  57 W6        30.07S
LAKEVILLE      SUNNY     75  64  69 CALM      30.08S
EDEN PRAIRIE   SUNNY     79  61  53 NW9       30.07R
LAKEVILLE      SUNNY     75  64  69 CALM      30.08S
SOUTH ST PAUL  SUNNY     77  61  58 NW6       30.07S
LAKE ELMO      FAIR      75  64  69 NW6       30.08S
$$
MNZ001>005-007-008-013>017-022>024-027-028-251600-
   Northwest Minnesota

CITY           SKY/WX    TMP DP  RH WIND       PRES   REMARKS
BEMIDJI        SUNNY     73  61  64 W6        30.05S
HALLOCK        SUNNY     72  64  78 CALM      29.99S
ROSEAU         SUNNY     73  64  73 W6        30.00S
WARROAD        SUNNY     72  66  83 SW5       30.00S
THIEF RVR FALL SUNNY     72  62  71 VRB5      30.04R
CROOKSTON      SUNNY     73  63  68 SW3       30.03S
FOSSTON        SUNNY     72  63  73 CALM      30.06R
DETROIT LAKES  SUNNY     73  61  64 W3        30.09R
MOORHEAD       SUNNY     73  63  68 SE3       30.06S
PARK RAPIDS    SUNNY     76  60  57 VRB5      30.07R
MAHNOMEN       FAIR      72  62  71 SW3       30.06R
$$
MNZ006-009>011-018-025>026-251600-
   North Central Minnesota

CITY           SKY/WX    TMP DP  RH WIND       PRES   REMARKS
BAUDETTE       SUNNY     74  60  61 W7        30.00S
FLAG ISLAND    SUNNY     73  61  64 SW6       29.97S
INTL FALLS     SUNNY     72  63  73 W7        30.00S
WASKISH        SUNNY     73  64  73 W6        30.02S
BIG FORK       SUNNY     73  61  64 W6        30.03F
LONGVILLE      SUNNY     73  63  68 NW6       30.06R
GRAND RAPIDS   SUNNY     73  62  68 NW7       30.06S
CRANE LAKE     MOSUNNY   70  61  73 NW6       30.01S
ORR            SUNNY     72  59  64 NW8       30.00R
COOK           SUNNY     72  59  64 NW9       30.02S
WALKER         FAIR      73  61  66 NW6       30.05S
$$
MNZ012-019>021-037-251600-
   Northeast Minnesota

CITY           SKY/WX    TMP DP  RH WIND       PRES   REMARKS
DULUTH         MOSUNNY   73  62  68 W13       30.04R
ELY            MOSUNNY   72  57  60 W14G20    30.00S
HIBBING        SUNNY     71  61  70 NW13      30.03S
EVELETH        MOSUNNY   73  60  65 W14       30.03S
DULUTH HARBOR  SUNNY     75  64  69 W9        30.02R
TWO HARBORS    MOSUNNY   75  64  69 W6        29.99S
SILVER BAY     SUNNY     75  61  60 NW7       29.98R
GRAND MARAIS     N/A     64  51  62 W13       29.94R
G MARAIS ARPRT SUNNY     70  55  60 W8G16     29.98R
$$
MNZ029>031-032-039>041-046>048-054>057-064-251600-
   West Central Minnesota

CITY           SKY/WX    TMP DP  RH WIND       PRES   REMARKS
FERGUS FALLS   SUNNY     73  63  68 W3        30.09S
WHEATON        SUNNY     81  64  57 CALM      30.09F
MORRIS         SUNNY     79  61  53 CALM      30.08S
ALEXANDRIA     SUNNY     76  56  49 NW3       30.10S
ELBOW LAKE     FAIR      73  65  74 W6        30.09S
WADENA         SUNNY     73  63  68 W3        30.08R
GLENWOOD       SUNNY     75  61  60 CALM      30.10S
APPLETON       SUNNY     75  64  69 W5        30.08F
BENSON         SUNNY     75  63  64 CALM      30.09S
ORTONVILLE     SUNNY     79  63  57 CALM      30.08F
MADISON        SUNNY     75  61  60 CALM      30.09S
WILLMAR        FAIR      75  64  69 CALM      30.10F
$$
MNZ033>034-036-042>043-049>051-058-059-251600-
   Central Minnesota

CITY           SKY/WX    TMP DP  RH WIND       PRES   REMARKS
ST CLOUD       SUNNY     75  64  68 W3        30.08S
SAUK CENTRE    FAIR      74  61  63 NW3       30.09F
PAYNESVILLE    SUNNY     75  61  62 N3        30.10S
AITKIN         SUNNY     75  61  60 CALM      30.05S
PINE RIVER     SUNNY     73  63  68 CALM      30.09S
BRAINERD       SUNNY     74  60  61 NW7       30.07S
STAPLES        SUNNY     73  59  60 NW6       30.08S
LONG PRAIRIE   FAIR      73  61  64 SW6       30.10S
LITTLE FALLS   SUNNY     73  59  60 W5        30.09R
LITCHFIELD     SUNNY     77  63  61 NW5       30.10S
BUFFALO        SUNNY     76  61  59 NW3       30.09S
MAPLE LAKE     SUNNY     76  64  66 NW5       30.09S
HUTCHINSON     SUNNY     76  64  66 W3        30.11S
$$
MNZ037-044-045-052-053-251600-
   East Central Minnesota

CITY           SKY/WX    TMP DP  RH WIND       PRES   REMARKS
PRINCETON      SUNNY     79  64  61 W5        30.08S
MORA           SUNNY     73  61  64 W5        30.08R
CAMBRIDGE      SUNNY     77  63  61 W6        30.06R
RUSH CITY      SUNNY     75  64  69 W5        30.06S
MOOSE LAKE     SUNNY     73  61  64 W5        30.04R
HINCKLEY       FAIR      73  64  73 W7        30.06S
CLOQUET        MOSUNNY   73  57  56 W9        30.04R
MCGREGOR       SUNNY     73  63  68 W6        30.06S
$$
MNZ071>073-080-081-089-090-097-098-251600-
   Southwest Minnesota

CITY           SKY/WX    TMP DP  RH WIND       PRES   REMARKS
MONTEVIDEO     SUNNY     81  70  69 CALM      30.11S
GRANITE FALLS  SUNNY     76  66  70 SE3       30.11S
CANBY          SUNNY     79  63  57 W6        30.12R
MARSHALL       SUNNY     77  61  57 E5        30.11S
REDWOOD FALLS  SUNNY     76  61  59 CALM      30.10S
OLIVIA         SUNNY     73  61  64 CALM      30.09S
PIPESTONE      SUNNY     75  63  64 W2        30.14R
WINDOM         SUNNY     75  64  69 CALM      30.13S
WORTHINGTON    SUNNY     77  63  61 NE3       30.14S
JACKSON        SUNNY     75  61  60 CALM      30.13F
TRACY          SUNNY     77  63  61 E3        30.13S
SLAYTON        SUNNY     76  60  57 CALM      30.14S
$$
MNZ065>067-074>077-082>085-091>093-251600-
   South Central Minnesota

CITY           SKY/WX    TMP DP  RH WIND       PRES   REMARKS
MANKATO        SUNNY     73  63  68 W6        30.10S
NEW ULM        SUNNY     73  64  73 NW3       30.11S
ST JAMES       SUNNY     70  61  73 CALM      30.12S
FAIRMONT         N/A    N/A N/A N/A MISG        N/A
GLENCOE        SUNNY     76  66  70 N3        30.09S
FARIBAULT      SUNNY     75  64  69 W3        30.10R
OWATONNA       SUNNY     73  64  73 CALM      30.10S
WASECA         SUNNY     72  64  78 W7        30.11S
ALBERT LEA     SUNNY     75  64  69 NW6       30.10F
$$
MNZ078>079-086>088-094>096-251600-
   Southeast Minnesota

CITY           SKY/WX    TMP DP  RH WIND       PRES   REMARKS
ROCHESTER      SUNNY     75  65  70 W6        30.10R
RED WING       SUNNY     77  63  61 W7        30.06R
STANTON        SUNNY     75  63  64 CALM      30.08R
DODGE CENTER   SUNNY     75  63  64 W8        30.10S
WINONA         SUNNY     77  63  61 W5        30.06S
AUSTIN         SUNNY     75  63  64 W8        30.10S
PRESTON        SUNNY     74  61  65 NW8       30.09F
$$
ABBREVIATIONS USED IN REMARKS
   TC - TEMPERATURES IN CELSIUS
  WCI - WIND CHILL INDEX
   HX - HEAT INDEX
  VSB - VISIBILITY
$$




USA.gov is the U.S. government's official web portal to all federal, state and local government web resources and services.